Norfolk — WDG2147 — position and weather

sailwx.info

Track history (hours):
 
Tides and Currents Weather Stations Pressure Air Temp Water Temp Dewpoint Dewpoint Depression Visibility Wind Speed Wind Dir Waves Ship Positions

Norfolk

Owner: Virginia Pilot Boat Corporation, Virginia Beach, VA. More information available from US FCC via Universal Licensing System and Coast Guard Vessel Documentation Center.

Last reported at 2014-Oct-30 00:31 UTC. Time now 2014-Nov-25 01:47 UTC.
Position N 36°54' W 076°05'.
Warning: this ship's position is 26 days out of date.

Length 18 m; draft 1.5 m.

Type: Pilot. MMSI: 367512630.

Date/timePositionNaut miles runAvg speedWind from/ knotsBaromVisibWave heightAir tempDewpointWater temp
2014-Oct-30 00:31N 36°54' W 076°05'4 3.9
2014-Oct-29 23:33N 36°56' W 076°01'4 0.2
2014-Oct-28 21:09N 36°58' W 076°06'13 1.2
2014-Oct-28 10:44N 36°53' W 076°21'3 4.6
2014-Oct-28 10:08N 36°55' W 076°20'12 0.5
2014-Oct-27 12:09N 36°54' W 076°05'0 0.0
2014-Oct-27 05:30N 36°54' W 076°05'0 0.0
2014-Oct-26 04:05N 36°54' W 076°05'0 0.0
2014-Oct-25 06:14N 36°54' W 076°05'0 0.0
2014-Oct-24 16:10N 36°54' W 076°05'0 0.0
2014-Oct-24 15:33N 36°54' W 076°05'11 0.3
2014-Oct-23 02:26N 36°52' W 076°19'5 0.3
2014-Oct-22 11:08N 36°57' W 076°21'2 2.2
2014-Oct-22 10:16N 36°55' W 076°20'4 0.4
2014-Oct-21 22:04N 36°58' W 076°25'611.5
2014-Oct-21 21:32N 36°52' W 076°21'6 3.1
2014-Oct-21 19:27N 36°58' W 076°25'0 0.1
2014-Oct-21 18:33N 36°58' W 076°25'0 0.0
2014-Oct-21 17:12N 36°58' W 076°25'0 0.2
2014-Oct-21 15:26N 36°58' W 076°25'0 0.4
2014-Oct-21 14:24N 36°58' W 076°25'0 0.2
2014-Oct-21 12:29N 36°58' W 076°25'0 0.0
2014-Oct-21 11:32N 36°58' W 076°25'3 2.0
2014-Oct-21 10:17N 36°57' W 076°22'3 3.5
2014-Oct-21 09:32N 36°58' W 076°25'0 0.0
2014-Oct-21 08:33N 36°58' W 076°25'0 0.0
2014-Oct-21 07:33N 36°58' W 076°25'0 0.0
2014-Oct-21 06:33N 36°58' W 076°25'0 0.0
2014-Oct-21 05:34N 36°58' W 076°25'0 0.0
2014-Oct-21 04:34N 36°58' W 076°25'0 0.0
2014-Oct-21 02:24N 36°58' W 076°25'0 0.0
2014-Oct-21 01:32N 36°58' W 076°25'5 5.5
2014-Oct-21 00:33N 36°60' W 076°18'1210.7
2014-Oct-20 23:28N 36°54' W 076°05'0 0.0
2014-Oct-20 22:34N 36°54' W 076°05'0 0.0
2014-Oct-20 21:33N 36°54' W 076°05'0 0.0
2014-Oct-20 20:13N 36°54' W 076°05'0 0.0
2014-Oct-20 18:20N 36°54' W 076°05'0 0.0
2014-Oct-20 17:31N 36°54' W 076°05'0 0.0
2014-Oct-20 04:23N 36°54' W 076°05'  
Track history (hours):
 
Tides and Currents Weather Stations Pressure Air Temp Water Temp Dewpoint Dewpoint Depression Visibility Wind Speed Wind Dir Waves Ship Positions

Norfolk

Owner: Virginia Pilot Boat Corporation, Virginia Beach, VA. More information available from US FCC via Universal Licensing System and Coast Guard Vessel Documentation Center.

Last reported at 2014-Oct-30 00:31 UTC. Time now 2014-Nov-25 01:47 UTC.
Position N 36°54' W 076°05'.
Warning: this ship's position is 26 days out of date.

Length 18 m; draft 1.5 m.

Type: Pilot. MMSI: 367512630.

Date/timePositionNaut miles runAvg speedWind from/ knotsBaromVisibWave heightAir tempDewpointWater temp
2014-Oct-30 00:31N 36°54' W 076°05'4 3.9
2014-Oct-29 23:33N 36°56' W 076°01'4 0.2
2014-Oct-28 21:09N 36°58' W 076°06'13 1.2
2014-Oct-28 10:44N 36°53' W 076°21'3 4.6
2014-Oct-28 10:08N 36°55' W 076°20'12 0.5
2014-Oct-27 12:09N 36°54' W 076°05'0 0.0
2014-Oct-27 05:30N 36°54' W 076°05'0 0.0
2014-Oct-26 04:05N 36°54' W 076°05'0 0.0
2014-Oct-25 06:14N 36°54' W 076°05'0 0.0
2014-Oct-24 16:10N 36°54' W 076°05'0 0.0
2014-Oct-24 15:33N 36°54' W 076°05'11 0.3
2014-Oct-23 02:26N 36°52' W 076°19'5 0.3
2014-Oct-22 11:08N 36°57' W 076°21'2 2.2
2014-Oct-22 10:16N 36°55' W 076°20'4 0.4
2014-Oct-21 22:04N 36°58' W 076°25'611.5
2014-Oct-21 21:32N 36°52' W 076°21'6 3.1
2014-Oct-21 19:27N 36°58' W 076°25'0 0.1
2014-Oct-21 18:33N 36°58' W 076°25'0 0.0
2014-Oct-21 17:12N 36°58' W 076°25'0 0.2
2014-Oct-21 15:26N 36°58' W 076°25'0 0.4
2014-Oct-21 14:24N 36°58' W 076°25'0 0.2
2014-Oct-21 12:29N 36°58' W 076°25'0 0.0
2014-Oct-21 11:32N 36°58' W 076°25'3 2.0
2014-Oct-21 10:17N 36°57' W 076°22'3 3.5
2014-Oct-21 09:32N 36°58' W 076°25'0 0.0
2014-Oct-21 08:33N 36°58' W 076°25'0 0.0
2014-Oct-21 07:33N 36°58' W 076°25'0 0.0
2014-Oct-21 06:33N 36°58' W 076°25'0 0.0
2014-Oct-21 05:34N 36°58' W 076°25'0 0.0
2014-Oct-21 04:34N 36°58' W 076°25'0 0.0
2014-Oct-21 02:24N 36°58' W 076°25'0 0.0
2014-Oct-21 01:32N 36°58' W 076°25'5 5.5
2014-Oct-21 00:33N 36°60' W 076°18'1210.7
2014-Oct-20 23:28N 36°54' W 076°05'0 0.0
2014-Oct-20 22:34N 36°54' W 076°05'0 0.0
2014-Oct-20 21:33N 36°54' W 076°05'0 0.0
2014-Oct-20 20:13N 36°54' W 076°05'0 0.0
2014-Oct-20 18:20N 36°54' W 076°05'0 0.0
2014-Oct-20 17:31N 36°54' W 076°05'0 0.0
2014-Oct-20 04:23N 36°54' W 076°05'  

Dump ship's entire track history